ON7HN Weather Reports


time (UTC)temp
C
wind
direction
speed
KPH
gust
KPH
rain 1hr
cm
rain 24hr
cm
rain mn
cm
humidity
%
barometer
mb
20190426135039 16 225 3.2 0.0 0.00 0.00 0.00 34 1012.2
20190426134544 16 202 9.7 0.0 0.00 0.00 0.00 35 1012.3
20190426133531 17 225 0.0 0.0 0.00 0.00 0.00 35 1012.3
20190426133032 16 180 14.5 0.0 0.00 0.00 0.00 37 1012.3
20190426132037 15 225 0.0 0.0 0.00 0.00 0.00 37 1012.3
20190426131533 15 225 11.3 0.0 0.00 0.00 0.00 38 1012.4
20190426130034 15 248 6.4 0.0 0.00 0.00 0.00 40 1012.4
20190426125534 15 225 8.0 0.0 0.00 0.00 0.00 40 1012.4
20190426125034 15 225 6.4 0.0 0.00 0.00 0.00 40 1012.4
20190426124044 15 225 6.4 0.0 0.00 0.00 0.00 39 1012.4
20190426123519 15 225 9.7 0.0 0.00 0.00 0.00 40 1012.4
20190426120532 16 225 9.7 0.0 0.00 0.00 0.00 39 1012.4
20190426115547 16 248 14.5 0.0 0.00 0.05 0.00 38 1012.2
20190426115032 16 225 14.5 0.0 0.00 0.05 0.00 39 1012.2
20190426114028 16 0 4.8 0.0 0.00 0.05 0.00 39 1012.2
20190426113036 15 248 11.3 0.0 0.00 0.05 0.00 39 1012.1
20190426111528 15 270 4.8 0.0 0.00 0.05 0.00 43 1012.1
20190426110040 15 202 0.0 0.0 0.00 0.05 0.00 43 1011.9
20190426105544 15 202 9.7 0.0 0.00 0.05 0.00 43 1011.9
20190426105032 15 270 8.0 0.0 0.00 0.05 0.00 43 1011.8
20190426104536 15 248 9.7 0.0 0.00 0.05 0.00 46 1011.9
20190426104049 15 202 8.0 0.0 0.00 0.05 0.00 46 1012.0
20190426103036 15 225 9.7 0.0 0.00 0.05 0.00 48 1012.3
20190426102040 14 248 9.7 0.0 0.00 0.05 0.00 51 1012.3
20190426101539 13 270 9.7 0.0 0.00 0.05 0.00 52 1012.4
20190426101032 13 180 9.7 0.0 0.00 0.05 0.00 51 1012.5
20190426100537 14 225 9.7 0.0 0.00 0.05 0.00 51 1012.5
20190426100037 14 225 8.0 0.0 0.00 0.05 0.00 53 1012.5
20190426095524 13 270 1.6 0.0 0.00 0.05 0.00 53 1012.5
20190426094536 13 225 9.7 0.0 0.00 0.05 0.00 54 1012.4
20190426094026 13 225 8.0 0.0 0.00 0.05 0.00 53 1012.4
20190426090543 13 180 3.2 0.0 0.00 0.05 0.00 62 1012.2
20190426090038 12 315 0.0 0.0 0.00 0.05 0.00 62 1012.1
20190426085033 12 225 16.1 0.0 0.00 0.05 0.00 64 1012.0
20190426084537 12 202 8.0 0.0 0.00 0.05 0.00 65 1012.0
20190426084036 12 225 14.5 0.0 0.00 0.05 0.00 65 1012.0
20190426083543 12 202 9.7 0.0 0.00 0.05 0.00 66 1012.1
20190426083039 11 202 4.8 0.0 0.00 0.05 0.00 66 1012.0
20190426082545 11 225 3.2 0.0 0.00 0.05 0.00 67 1012.0
20190426082038 11 225 4.8 0.0 0.00 0.05 0.00 68 1012.0
20190426081029 11 180 3.2 0.0 0.00 0.05 0.00 69 1012.1
20190426080534 11 225 0.0 0.0 0.00 0.05 0.00 69 1012.0
20190426080043 11 135 3.2 0.0 0.00 0.05 0.00 70 1011.9
20190426075536 11 202 8.0 0.0 0.00 0.05 0.00 71 1011.8
20190426075036 11 248 6.4 0.0 0.00 0.05 0.00 71 1011.9
20190426074533 11 202 6.4 0.0 0.00 0.05 0.00 71 1011.9
20190426074040 11 202 9.7 0.0 0.00 0.05 0.00 71 1011.9
20190426072540 10 202 8.0 0.0 0.00 0.05 0.00 73 1011.5
20190426072031 10 202 8.0 0.0 0.00 0.05 0.00 73 1011.6
20190426071526 10 225 4.8 0.0 0.00 0.05 0.00 74 1011.6
20190426071039 10 202 3.2 0.0 0.00 0.05 0.00 75 1011.5
20190426065528 10 225 4.8 0.0 0.00 0.05 0.00 79 1011.1
20190426064034 10 202 6.4 0.0 0.00 0.05 0.00 81 1010.9
20190426062537 9 202 0.0 0.0 0.00 0.05 0.00 84 1010.7
20190426061535 8 202 0.0 0.0 0.00 0.05 0.00 84 1010.7
20190426061034 8 225 6.4 0.0 0.00 0.05 0.00 84 1010.5
20190426060025 8 202 4.8 0.0 0.00 0.05 0.00 85 1010.7
20190426054048 7 225 6.4 0.0 0.00 0.05 0.00 84 1010.4
20190426053545 8 202 3.2 0.0 0.00 0.05 0.00 84 1010.5
20190426052030 8 202 8.0 0.0 0.00 0.05 0.00 84 1010.3
20190426045538 8 202 3.2 0.0 0.00 0.05 0.00 84 1010.0
20190426045037 8 225 3.2 0.0 0.00 0.05 0.00 84 1010.0
20190426044039 8 225 6.4 0.0 0.00 0.05 0.00 83 1010.0
20190426043524 8 225 6.4 0.0 0.00 0.05 0.00 83 1009.8
20190426042029 8 202 8.0 0.0 0.00 0.05 0.00 83 1009.7
20190426041531 8 225 8.0 0.0 0.00 0.05 0.00 83 1009.4
20190426040526 8 202 1.6 0.0 0.00 0.05 0.00 83 1009.4
20190426040045 8 202 3.2 0.0 0.00 0.05 0.00 83 1009.4
20190426034033 8 225 3.2 0.0 0.00 0.05 0.00 83 1009.2
20190426033535 8 225 4.8 0.0 0.00 0.05 0.00 83 1009.2
20190426032533 8 225 0.0 0.0 0.00 0.05 0.00 83 1009.0
20190426031030 9 225 4.8 0.0 0.00 0.05 0.00 83 1009.0
20190426025535 9 225 8.0 0.0 0.00 0.05 0.00 83 1008.9
20190426024520 9 225 8.0 0.0 0.00 0.05 0.00 83 1008.7
20190426024034 9 202 9.7 0.0 0.00 0.05 0.00 83 1008.7
20190426023039 9 225 6.4 0.0 0.00 0.05 0.00 83 1008.8
20190426022535 9 248 4.8 0.0 0.00 0.05 0.00 83 1008.8
20190426021534 9 225 9.7 0.0 0.00 0.05 0.00 83 1008.8
20190426021040 9 225 8.0 0.0 0.00 0.05 0.00 83 1008.8
20190426015518 9 135 0.0 0.0 0.00 0.05 0.00 82 1008.3
20190426015043 9 225 6.4 0.0 0.00 0.05 0.00 82 1008.2
20190426014547 9 202 6.4 0.0 0.00 0.05 0.00 82 1008.2
20190426014019 9 225 3.2 0.0 0.00 0.05 0.00 82 1008.1
20190426013526 9 202 3.2 0.0 0.00 0.05 0.00 81 1008.2
20190426013037 9 225 1.6 0.0 0.00 0.05 0.00 81 1008.3
20190426012535 9 202 3.2 0.0 0.00 0.05 0.00 83 1008.3
20190426012038 9 225 3.2 0.0 0.00 0.05 0.00 81 1008.3
20190426011534 9 180 4.8 0.0 0.00 0.05 0.00 82 1008.3
20190426011029 9 225 8.0 0.0 0.00 0.05 0.00 82 1008.3
20190426005055 9 202 3.2 0.0 0.00 0.05 0.00 81 1008.4
20190426004043 9 202 8.0 0.0 0.00 0.05 0.00 81 1008.5
20190426001034 9 202 0.0 0.0 0.00 0.05 0.00 81 1007.9
20190426000539 9 202 0.0 0.0 0.00 0.05 0.00 81 1007.8
20190426000043 9 225 4.8 0.0 0.00 0.05 0.00 81 1007.8
20190425235031 9 202 0.0 0.0 0.00 0.05 0.00 80 1007.9
20190425234533 9 202 0.0 0.0 0.00 0.05 0.00 80 1007.9
20190425234038 9 225 0.0 0.0 0.00 0.05 0.00 80 1007.8
20190425233039 9 225 0.0 0.0 0.00 0.05 0.00 79 1007.7
20190425232528 9 180 0.0 0.0 0.00 0.05 0.00 79 1007.8
20190425231536 9 225 6.4 0.0 0.00 0.05 0.00 79 1007.6
20190425231037 10 180 4.8 0.0 0.00 0.05 0.00 79 1007.3
20190425230026 10 202 6.4 0.0 0.00 0.05 0.00 79 1007.0
20190425225534 9 202 8.0 0.0 0.00 0.05 0.00 79 1007.0
20190425225044 10 225 8.0 0.0 0.00 0.05 0.00 79 1007.1
20190425224027 10 225 9.7 0.0 0.00 0.05 0.00 78 1007.2
20190425223546 10 225 4.8 0.0 0.00 0.05 0.00 78 1007.2
20190425222539 10 202 8.0 0.0 0.00 0.05 0.00 78 1007.1
20190425222031 10 202 8.0 0.0 0.00 0.05 0.00 78 1007.0
20190425221537 10 180 8.0 0.0 0.00 0.05 0.00 77 1007.0
20190425220540 10 225 6.4 0.0 0.00 0.05 0.00 76 1006.7
20190425220044 10 112 0.0 0.0 0.00 0.05 0.00 76 1006.9
20190425214037 10 112 0.0 0.0 0.00 0.05 0.00 75 1006.8
20190425212544 10 248 0.0 0.0 0.00 0.05 0.00 74 1006.7
20190425212033 10 292 0.0 0.0 0.00 0.05 0.00 74 1006.7
20190425210523 10 225 3.2 0.0 0.00 0.05 0.00 73 1006.6
20190425205539 10 158 1.6 0.0 0.00 0.05 0.00 72 1006.5
20190425204534 10 225 8.0 0.0 0.00 0.05 0.00 71 1006.5
20190425204047 10 248 0.0 0.0 0.00 0.05 0.00 71 1006.4
20190425203518 10 225 0.0 0.0 0.00 0.05 0.00 71 1006.4
20190425203040 10 112 0.0 0.0 0.00 0.05 0.00 70 1006.2
20190425202528 10 202 6.4 0.0 0.00 0.05 0.00 70 1006.3
20190425202023 10 22 0.0 0.0 0.00 0.05 0.00 70 1006.2
20190425201553 10 45 0.0 0.0 0.00 0.05 0.00 69 1006.3
20190425201045 10 202 0.0 0.0 0.00 0.05 0.00 69 1006.4
20190425200528 11 202 0.0 0.0 0.00 0.05 0.00 69 1006.4
20190425195030 11 270 0.0 0.0 0.00 0.05 0.00 68 1005.8
20190425194037 11 158 0.0 0.0 0.00 0.05 0.00 68 1006.1
20190425193537 11 135 0.0 0.0 0.00 0.05 0.00 68 1006.0
20190425192032 11 68 0.0 0.0 0.00 0.05 0.00 66 1006.2
20190425191536 11 270 0.0 0.0 0.00 0.05 0.00 66 1006.2
20190425190043 12 248 0.0 0.0 0.00 0.05 0.00 65 1006.3
20190425185533 12 315 0.0 0.0 0.00 0.10 0.00 65 1006.0
20190425185032 12 248 0.0 0.0 0.00 0.10 0.00 65 1006.0
20190425184539 12 180 6.4 0.0 0.00 0.10 0.00 64 1005.9
20190425184037 12 225 4.8 0.0 0.00 0.10 0.00 64 1005.9
20190425183537 12 158 6.4 0.0 0.00 0.10 0.00 64 1005.8
20190425182536 12 248 0.0 0.0 0.00 0.10 0.00 64 1005.6
20190425181544 12 202 0.0 0.0 0.00 0.10 0.00 63 1005.5
20190425180037 12 180 0.0 0.0 0.00 0.10 0.00 63 1005.5
20190425175524 12 225 0.0 0.0 0.00 0.10 0.00 63 1005.5
20190425174533 12 225 3.2 0.0 0.00 0.10 0.00 62 1005.5
20190425174018 12 248 1.6 0.0 0.00 0.10 0.00 62 1005.3
20190425173037 12 202 4.8 0.0 0.00 0.10 0.00 61 1005.2
20190425172531 12 225 3.2 0.0 0.00 0.10 0.00 61 1005.3
20190425172034 12 202 0.0 0.0 0.00 0.10 0.00 60 1005.1
20190425171035 13 135 0.0 0.0 0.00 0.10 0.00 60 1004.9
20190425165046 13 248 8.0 0.0 0.00 0.10 0.00 60 1004.6
20190425164026 12 270 11.3 0.0 0.00 0.10 0.00 61 1005.0
20190425163032 12 180 0.0 0.0 0.00 0.10 0.00 62 1004.8
20190425162035 12 225 0.0 0.0 0.00 0.10 0.00 62 1004.9
20190425161531 12 180 14.5 0.0 0.00 0.10 0.00 62 1004.8
20190425161034 12 158 3.2 0.0 0.00 0.10 0.00 62 1004.8
20190425160533 12 225 9.7 0.0 0.00 0.10 0.00 62 1004.8
20190425154530 13 202 16.1 0.0 0.00 0.10 0.00 59 1004.2
20190425154041 13 248 9.7 0.0 0.00 0.10 0.00 56 1004.2
20190425153030 13 248 6.4 0.0 0.00 0.10 0.00 57 1003.9
20190425152539 13 225 9.7 0.0 0.00 0.10 0.00 58 1003.8
20190425152032 13 180 9.7 0.0 0.00 0.10 0.00 60 1003.8
20190425150028 13 202 8.0 0.0 0.00 0.10 0.00 58 1003.7
20190425145543 13 248 8.0 0.0 0.00 0.10 0.00 57 1003.6
20190425145034 13 225 12.9 0.0 0.00 0.10 0.00 57 1003.3
20190425144531 13 135 9.7 0.0 0.00 0.10 0.00 56 1003.3
20190425143532 13 202 6.4 0.0 0.00 0.10 0.00 57 1003.5
20190425142531 13 180 9.7 0.0 0.00 0.10 0.00 59 1003.4
20190425142041 13 225 6.4 0.0 0.00 0.10 0.00 59 1003.4
20190425141537 13 202 8.0 0.0 0.00 0.10 0.00 59 1003.2
20190425141029 13 270 6.4 0.0 0.00 0.10 0.00 59 1003.2
20190425140040 13 202 11.3 0.0 0.00 0.10 0.00 60 1003.5